#timestamp,LO_Frequency,Hit 
1504980015.2,286047001.5,N
1504980035.9,286047004.0,N
1504980055.7,286047004.4,N
1504980075.6,286047003.1,N
1504980095.4,286047003.5,N
1504980115.2,286047003.7,N
1504980135.0,286047003.8,N
1504980135.9,286047003.8,N
1504980155.8,286047003.2,N
1504980175.6,286047004.6,N
1504980195.5,286047008.9,P
1504980215.3,286047005.4,N
1504980235.1,286047005.7,N
1504980255.8,286047002.9,N
1504980275.7,286047005.1,N
1504980295.5,286047005.6,N
1504980315.3,286047004.7,N
1504980335.2,286047003.6,N
1504980355.9,286047006.0,P
1504980375.7,286046998.6,N
1504980395.6,286046997.0,N
1504980415.4,286047001.1,N
1504980435.2,286046998.7,N
1504980455.1,286046997.6,N
1504980456.0,286046997.6,N
1504980475.8,286046999.2,N
1504980495.6,286046999.7,N
1504980515.5,286047002.7,N
1504980535.3,286047000.2,N
1504980555.1,286047000.2,N
1504980575.9,286046999.8,N
1504980595.7,286047002.4,N
1504980615.5,286046998.5,N
1504980635.3,286047000.2,N
1504980655.2,286047000.3,N
1504980675.0,286047000.7,N
1504980675.9,286047000.7,N
1504980695.7,286047002.0,N
1504980715.6,286047002.0,N
1504980735.4,286046998.2,N
1504980755.2,286047000.2,N
1504980775.1,286047001.3,N
1504980776.0,286047001.3,N
1504980795.8,286047004.4,N
1504980815.6,286046999.8,N
1504980835.5,286047002.0,N
1504980855.3,286047001.4,N
1504980875.1,286047002.1,N
1504980895.9,286047003.5,N
1504980915.7,286047005.1,N
1504980935.5,286047003.2,N
1504980955.4,286047004.5,N
1504980975.2,286047003.7,N
1504980995.0,286047004.4,N
1504980995.9,286047004.4,N
1504981015.7,286047004.4,N
1504981035.6,286047004.1,N
1504981055.4,286047005.1,N
1504981075.2,286047005.6,N
1504981095.1,286047003.8,N
1504981096.0,286047003.8,N
1504981115.8,286047003.9,N
1504981135.6,286047002.9,N
1504981155.5,286047004.8,N
1504981175.3,286047003.3,N
1504981195.1,286047002.9,N
1504981215.9,286047007.3,P
1504981235.7,286047005.9,N
1504981255.5,286047004.2,N
1504981275.4,286047003.2,N
1504981295.2,286047004.8,N
1504981315.0,286047005.4,P
1504981315.9,286047005.4,P
1504981335.8,286046998.8,P
1504981355.6,286047001.2,N
1504981375.4,286046999.0,N
1504981395.3,286047000.8,N
1504981415.1,286047000.3,N
1504981416.0,286047000.3,N
1504981435.8,286047002.2,N
1504981455.7,286047002.2,N
1504981475.5,286047002.1,N
1504981495.3,286047000.3,N
1504981515.2,286047000.6,N
1504981535.9,286046999.8,N
1504981555.7,286047001.9,N
1504981575.5,286047001.4,N
1504981595.4,286047004.1,N
1504981615.2,286047001.7,N
1504981635.0,286047002.1,N
1504981635.9,286047002.1,N
1504981655.8,286047001.8,N
1504981675.6,286047002.8,N
1504981695.4,286047001.6,N
1504981715.3,286047004.4,N
1504981735.1,286047003.3,N
1504981736.0,286047003.3,N
1504981755.8,286047003.7,N
1504981775.7,286047005.6,P
1504981795.5,286047002.4,N
1504981815.3,286047001.5,N
1504981835.2,286047001.4,N
1504981855.9,286047003.2,N
1504981875.7,286047001.0,N
1504981895.6,286047002.2,N
1504981915.4,286046999.8,N
1504981935.2,286047001.3,N
1504981955.1,286047003.3,N
1504981956.0,286047003.3,N
1504981975.8,286047005.1,P
1504981995.6,286047003.9,N
1504982015.5,286047001.4,N
1504982035.3,286046998.1,N
1504982055.1,286047001.1,N
1504982075.9,286046999.3,N
1504982095.7,286046999.4,N
1504982115.5,286047000.7,N
1504982135.3,286046999.4,N
1504982155.2,286047000.9,N
1504982175.0,286047000.2,N
1504982175.9,286047000.2,N
1504982195.7,286047002.4,N
1504982215.6,286047000.3,N
1504982235.4,286047000.9,N
1504982255.2,286047000.3,N
1504982275.1,286047001.3,N
1504982276.0,286047001.3,N
1504982295.8,286047001.4,N
1504982315.6,286047003.8,N
1504982335.5,286047002.3,N
1504982355.3,286047002.6,N
1504982375.1,286047000.2,N
1504982395.9,286047002.8,N
1504982415.7,286047000.1,N
1504982435.5,286047002.8,N
1504982455.4,286047000.2,N
1504982475.2,286047000.3,N
1504982495.0,286047000.0,N
1504982495.9,286047000.0,N
1504982515.7,286046999.8,N
1504982535.6,286047000.1,N
1504982555.4,286047002.0,N
1504982575.2,286047004.1,P
1504982595.1,286047004.3,N
1504982596.0,286047004.3,N
1504982615.8,286047001.5,N
1504982635.6,286047002.7,N
1504982655.5,286047002.2,N
1504982675.3,286047000.1,N
1504982695.1,286047000.4,N
1504982715.9,286047000.7,N
1504982735.7,286046999.0,N
1504982755.5,286046998.6,N
1504982775.4,286047000.0,N
1504982795.2,286047000.1,N
1504982815.0,286047000.2,N
1504982815.9,286047000.2,N
1504982835.8,286046999.1,N
1504982855.6,286046996.9,N
1504982875.4,286047001.2,N
1504982895.3,286047000.4,N
1504982915.1,286046998.2,N
1504982916.0,286046998.2,N
1504982935.8,286046998.6,N
1504982955.6,286047000.0,N
1504982975.5,286046998.1,N
1504982995.3,286047001.2,N
1504983015.1,286047000.4,N
1504983035.9,286047004.3,N
1504983055.7,286047004.3,N
1504983075.5,286047002.0,N
1504983095.4,286047003.6,N
1504983115.2,286047003.8,N
1504983135.0,286047004.4,N
1504983135.9,286047004.4,N
1504983155.8,286047002.9,N
1504983175.6,286047001.3,N
1504983195.4,286047003.1,N
1504983215.3,286047002.9,N
1504983235.1,286047003.8,N
1504983236.0,286047003.8,N
1504983255.8,286047004.4,N
1504983275.7,286047003.4,N
1504983295.5,286047005.8,N
1504983315.3,286047003.7,N
1504983335.1,286047003.4,N
1504983355.9,286047005.7,N
1504983375.7,286047004.8,N
1504983395.5,286047005.1,N
1504983415.4,286047005.7,N
1504983435.2,286047003.3,N
1504983455.0,286047003.3,N
1504983455.9,286047003.3,N
1504983475.8,286047004.8,N
1504983495.6,286047007.2,P
1504983515.4,286047003.2,N
1504983535.3,286047003.0,N
1504983555.1,286047003.3,N
1504983575.8,286047003.1,N
1504983595.7,286047003.3,N
